User: anonymous   Login
Location: Haulchin
(50.3172°N, 3.4360°E)
Time: 14:13:23
(UTC+00:00)
Language:

Cosmos 2333 Rocket - Orbit

View from above orbital plane
View from above orbital plane
View from above satellite
View from above satellite

Ground track
Ground track

The orbit data is extracted from the following two-line orbital elements,

1 24298U 96051B   24195.92343369 -.00000176  00000-0 -68679-4 0  9992
2 24298  70.8012  12.2926 0017826 303.4262  56.5153 14.12466245436396
Epoch (UTC): 13 July 2024 22:09:44
Eccentricity: 0.0017826
inclination: 70.8012°
perigee height: 838 km
apogee height: 864 km
right ascension of ascending node: 12.2926°
argument of perigee: 303.4262°
revolutions per day: 14.12466245
mean anomaly at epoch: 56.5153°
orbit number at epoch: 43639

The dashed part of the orbit path shows where the satellite is in the earth's shadow,  

DLR